Date String (YYYY-MM-DD hh:mm:ss) UTC,Instrument flags,absolute air pressure of the measurement (hPa),sample flow rate (lpm),inlet stack bypass flow (lpm),air temperature of the measurement (°C),ambient temperature measured by the external sensor (°C),aerosol sample conditioner tube jacket temperature (°C),OPC LED temperature (°C),internal box temperature (°C),relative humidity of the measurement (%),span deviation,mass concentration of particles derived from Lorenz-Mie calculation of OPC scattering (μg/m³),mass concentration of particles derived from Lorenz-Mie calculation of OPC scattering (μg/m³),mass concentration of particles derived from Lorenz-Mie calculation of OPC scattering (μg/m³)
DateTimeUTC,F1_M11,P_M11,Q1_M11,Q2_M11,T1_M11,T2_M11,T3_M11,T4_M11,T5_M11,U1_M11,ZSPAN_M11,X2_M11,X0_M11,X1_M11
2024-04-16 03:00:00,SystemResetWarning,0816.2,4.99,000.00,023.7,022.8,000.0,032.3,025.4,013.6,0000.0,0000.47,0004.46,0000.15
2024-04-16 03:01:00,SystemResetWarning,0816.4,5.00,000.00,023.7,022.7,000.0,032.3,025.4,013.7,0000.0,0000.48,0004.55,0000.15
2024-04-16 03:02:00,SystemResetWarning,0816.3,5.00,000.00,023.7,022.7,000.0,032.3,025.4,013.7,0000.0,0000.52,0004.60,0000.16
2024-04-16 03:03:00,SystemResetWarning,0816.3,5.00,000.00,023.7,022.7,000.0,032.3,025.3,015.6,0000.0,0000.49,0005.01,0000.16
2024-04-16 03:04:00,SystemResetWarning,0816.6,5.00,000.00,023.7,022.7,000.0,032.2,025.3,017.4,0000.0,0000.55,0005.61,0000.20
2024-04-16 03:05:00,SystemResetWarning,0816.8,5.00,000.00,023.7,022.7,000.0,032.2,025.3,018.1,0000.0,0000.75,0006.50,0000.26
2024-04-16 03:06:00,SystemResetWarning,0816.7,5.00,000.00,023.7,022.7,000.0,032.2,025.3,017.7,0000.0,0000.89,0007.58,0000.34
2024-04-16 03:07:00,SystemResetWarning,0816.8,5.00,000.00,023.7,022.7,000.0,032.2,025.4,016.8,0000.0,0000.92,0006.53,0000.39
2024-04-16 03:08:00,SystemResetWarning,0816.9,5.00,000.00,023.7,022.7,000.0,032.2,025.4,016.2,0000.0,0000.97,0005.76,0000.44
2024-04-16 03:09:00,SystemResetWarning,0816.8,4.99,000.00,023.7,022.7,000.0,032.2,025.4,015.7,0000.0,0001.06,0005.89,0000.49
2024-04-16 03:10:00,SystemResetWarning,0816.6,5.00,000.00,023.7,022.7,000.0,032.2,025.4,014.6,0000.0,0001.07,0005.37,0000.51
2024-04-16 03:11:00,SystemResetWarning,0816.5,5.00,000.00,023.6,022.7,000.0,032.2,025.4,014.7,0000.0,0001.05,0004.83,0000.50
2024-04-16 03:12:00,SystemResetWarning,0816.5,5.00,000.00,023.6,022.7,000.0,032.2,025.3,014.4,0000.0,0001.06,0004.80,0000.52
2024-04-16 03:13:00,SystemResetWarning,0816.6,5.00,000.00,023.6,022.7,000.0,032.2,025.4,015.4,0000.0,0001.05,0004.83,0000.53
2024-04-16 03:14:00,SystemResetWarning,0816.6,5.00,000.00,023.6,022.7,000.0,032.2,025.3,014.8,0000.0,0001.15,0006.14,0000.57
2024-04-16 03:15:00,SystemResetWarning,0816.6,5.00,000.00,023.6,022.7,000.0,032.2,025.4,014.4,0000.0,0001.12,0005.29,0000.57
2024-04-16 03:16:00,SystemResetWarning,0816.5,5.00,000.00,023.6,022.6,000.0,032.1,025.3,014.3,0000.0,0000.92,0004.65,0000.51
2024-04-16 03:17:00,SystemResetWarning,0816.6,5.00,000.00,023.6,022.6,000.0,032.1,025.3,014.4,0000.0,0000.79,0003.15,0000.46
2024-04-16 03:18:00,SystemResetWarning,0816.4,5.00,000.00,023.6,022.6,000.0,032.1,025.3,014.5,0000.0,0000.71,0002.81,0000.41
2024-04-16 03:19:00,SystemResetWarning,0816.4,4.99,000.00,023.5,022.6,000.0,032.1,025.2,014.2,0000.0,0000.66,0002.75,0000.38
2024-04-16 03:20:00,SystemResetWarning,0816.4,5.01,000.00,023.5,022.6,000.0,032.1,025.2,013.9,0000.0,0000.59,0002.71,0000.32
2024-04-16 03:21:00,SystemResetWarning,0816.4,5.01,000.00,023.5,022.6,000.0,032.1,025.2,013.8,0000.0,0000.54,0003.50,0000.29
2024-04-16 03:22:00,SystemResetWarning,0816.5,4.99,000.00,023.5,022.5,000.0,032.1,025.2,013.5,0000.0,0000.55,0004.08,0000.29
2024-04-16 03:23:00,SystemResetWarning,0816.4,5.00,000.00,023.5,022.5,000.0,032.1,025.2,013.5,0000.0,0000.55,0004.08,0000.28
2024-04-16 03:24:00,SystemResetWarning,0816.4,5.02,000.00,023.5,022.5,000.0,032.1,025.2,013.3,0000.0,0000.56,0004.09,0000.28
2024-04-16 03:25:00,SystemResetWarning,0816.4,4.99,000.00,023.5,022.5,000.0,032.0,025.2,013.4,0000.0,0000.47,0002.63,0000.23
2024-04-16 03:26:00,SystemResetWarning,0816.4,4.99,000.00,023.5,022.5,000.0,032.0,025.1,013.2,0000.0,0000.43,0002.47,0000.20
2024-04-16 03:27:00,SystemResetWarning,0816.5,5.02,000.00,023.5,022.5,000.0,032.0,025.1,013.2,0000.0,0000.45,0002.56,0000.19
2024-04-16 03:28:00,SystemResetWarning,0816.5,5.00,000.00,023.4,022.5,000.0,032.0,025.1,013.3,0000.0,0000.45,0002.65,0000.19
2024-04-16 03:29:00,SystemResetWarning,0816.5,5.00,000.00,023.4,022.4,000.0,032.0,025.1,013.3,0000.0,0000.44,0002.61,0000.18
2024-04-16 03:30:00,SystemResetWarning,0816.4,4.99,000.00,023.4,022.4,000.0,032.0,025.1,013.1,0000.0,0000.39,0002.42,0000.16
2024-04-16 03:31:00,SystemResetWarning,0816.5,5.00,000.00,023.4,022.4,000.0,032.0,025.0,013.1,0000.0,0000.37,0002.30,0000.16
2024-04-16 03:32:00,SystemResetWarning,0816.5,4.99,000.00,023.4,022.4,000.0,032.0,025.0,013.1,0000.0,0000.37,0001.35,0000.16
2024-04-16 03:33:00,SystemResetWarning,0816.5,5.00,000.00,023.4,022.4,000.0,031.9,025.1,013.1,0000.0,0000.37,0000.88,0000.16
2024-04-16 03:34:00,SystemResetWarning,0816.5,5.00,000.00,023.4,022.4,000.0,031.9,025.1,013.0,0000.0,0000.36,0000.89,0000.15
2024-04-16 03:35:00,SystemResetWarning,0816.5,5.01,000.00,023.4,022.4,000.0,031.9,025.1,013.1,0000.0,0000.36,0001.99,0000.15
2024-04-16 03:36:00,SystemResetWarning,0816.5,5.02,000.00,023.4,022.4,000.0,031.9,025.1,013.1,0000.0,0000.37,0002.27,0000.16
2024-04-16 03:37:00,SystemResetWarning,0816.5,4.99,000.00,023.4,022.4,000.0,031.9,025.0,013.1,0000.0,0000.37,0002.28,0000.16
2024-04-16 03:38:00,SystemResetWarning,0816.5,4.99,000.00,023.4,022.4,000.0,031.9,025.0,013.1,0000.0,0000.36,0002.21,0000.16
2024-04-16 03:39:00,SystemResetWarning,0816.5,4.99,000.00,023.3,022.4,000.0,031.9,025.0,013.1,0000.0,0000.34,0002.09,0000.16
2024-04-16 03:40:00,SystemResetWarning,0816.5,5.00,000.00,023.3,022.4,000.0,031.9,025.0,013.1,0000.0,0000.33,0002.10,0000.16
2024-04-16 03:41:00,SystemResetWarning,0816.4,5.02,000.00,023.3,022.4,000.0,031.9,025.0,013.0,0000.0,0000.33,0002.10,0000.16
2024-04-16 03:42:00,SystemResetWarning,0816.5,4.98,000.00,023.3,022.4,000.0,031.9,025.0,013.1,0000.0,0000.35,0002.15,0000.16
2024-04-16 03:43:00,SystemResetWarning,0816.4,5.00,000.00,023.3,022.4,000.0,031.9,025.0,013.2,0000.0,0000.33,0002.08,0000.16
2024-04-16 03:44:00,SystemResetWarning,0816.4,5.01,000.00,023.3,022.4,000.0,031.8,025.0,013.2,0000.0,0000.33,0002.81,0000.16
2024-04-16 03:45:00,SystemResetWarning,0816.5,5.00,000.00,023.3,022.4,000.0,031.8,025.0,013.3,0000.0,0000.34,0003.13,0000.16
2024-04-16 03:46:00,SystemResetWarning,0816.4,4.99,000.00,023.3,022.4,000.0,031.8,025.0,013.3,0000.0,0000.33,0002.29,0000.16
2024-04-16 03:47:00,SystemResetWarning,0816.3,5.00,000.00,023.3,022.4,000.0,031.8,025.0,013.2,0000.0,0000.32,0001.78,0000.16
2024-04-16 03:48:00,SystemResetWarning,0816.3,5.02,000.00,023.3,022.4,000.0,031.8,024.9,013.2,0000.0,0000.31,0001.76,0000.16
2024-04-16 03:49:00,SystemResetWarning,0816.3,5.01,000.00,023.3,022.4,000.0,031.8,024.9,013.2,0000.0,0000.30,0001.72,0000.16
2024-04-16 03:50:00,SystemResetWarning,0816.2,4.99,000.00,023.3,022.4,000.0,031.8,024.8,013.3,0000.0,0000.29,0001.72,0000.15
2024-04-16 03:51:00,SystemResetWarning,0816.2,4.99,000.00,023.3,022.3,000.0,031.8,024.9,013.3,0000.0,0000.29,0002.44,0000.15
2024-04-16 03:52:00,SystemResetWarning,0816.4,5.00,000.00,023.3,022.3,000.0,031.8,024.9,013.3,0000.0,0000.32,0002.64,0000.15
2024-04-16 03:53:00,SystemResetWarning,0816.3,5.00,000.00,023.3,022.3,000.0,031.7,024.9,013.3,0000.0,0000.33,0002.90,0000.15
2024-04-16 03:54:00,SystemResetWarning,0816.1,5.00,000.00,023.3,022.3,000.0,031.7,024.9,013.3,0000.0,0000.31,0002.96,0000.15
2024-04-16 03:55:00,SystemResetWarning,0816.1,5.00,000.00,023.2,022.3,000.0,031.7,024.9,013.3,0000.0,0000.32,0003.74,0000.15
2024-04-16 03:56:00,SystemResetWarning,0816.1,5.00,000.00,023.2,022.3,000.0,031.7,024.9,013.3,0000.0,0000.32,0003.54,0000.16
2024-04-16 03:57:00,SystemResetWarning,0816.1,5.00,000.00,023.2,022.3,000.0,031.7,024.9,013.3,0000.0,0000.37,0004.34,0000.16
2024-04-16 03:58:00,SystemResetWarning,0816.1,5.00,000.00,023.2,022.3,000.0,031.7,024.9,013.3,0000.0,0000.40,0004.37,0000.16
2024-04-16 03:59:00,SystemResetWarning,0816.1,4.99,000.00,023.2,022.3,000.0,031.7,024.9,013.3,0000.0,0000.41,0004.37,0000.16
